カタログに戻る

COSMOS 716

運用中軍事LEO
NORAD 7683·PAYLOAD·🇷🇺 Russia

打ち上げ Feb 28, 1975 から Plesetsk Cosmodrome

Loading…

次のパス (今後24時間)

TLE

最新Source: Space-Track

元期: Sep 14, 2026, 04:26 UTC

1 07683U 75016F   26257.18486731  .00000012  00000-0  20024-3 0  9997
2 07683  74.0042 156.6436 0021365 103.8301  50.2090 12.42449410337726

AllMySatでCOSMOS 716をリアルタイム追跡

Download on the App Store